Change the Weather History Date:

Sunday, April 13, 2014

  Actual Average Record
Temperature  
Mean Temperature 51 °F 56 °F  
Max Temperature 71 °F 70 °F 90 °F (1936)
Min Temperature 31 °F 41 °F 23 °F (1997)
Degree Days  
Heating Degree Days 14 10  
Month to date heating degree days 116 151  
Since 1 July heating degree days 4028 3960  
Cooling Degree Days 0 0  
Month to date cooling degree days 5 0  
Year to date cooling degree days 5 2  
Growing Degree Days 2 (Base 50)    
Moisture  
Dew Point 32 °F    
Average Humidity 44    
Maximum Humidity 70    
Minimum Humidity 17    
Precipitation  
Precipitation 0.00 in 0.04 in 1.69 in (2002)
Month to date precipitation 0.48 0.55  
Year to date precipitation 1.07 3.22  
Snow  
Snow 0.00 in 0.00 in 1.00 in (2007)
Month to date snowfall 0.0 0.4  
Since 1 July snowfall 12.4 17.3  
Snow Depth 0.00 in    
Sea Level Pressure  
Sea Level Pressure 29.73 in    
Wind  
Wind Speed 22 mph (NNW)    
Max Wind Speed 39 mph    
Max Gust Speed 48 mph    
Visibility 9 miles    
Events      
T = Trace of Precipitation, MM = Missing Value Source: NWS Daily Summary

Daily Weather History Graph

Daily Weather History Graph

Search for Another Location

Airport or City:

Trip Planner

Search our weather history database for the weather conditions in past years. The results will help you decide how hot, cold, wet, or windy it might be!

Date:

Astronomy

Apr. 13, 2014 Rise Set
Actual Time 7:17 AM CDT 8:18 PM CDT
Civil Twilight 6:51 AM CDT 8:44 PM CDT
Nautical Twilight 6:20 AM CDT 9:15 PM CDT
Astronomical Twilight 5:48 AM CDT 9:47 PM CDT
Moon 7:00 PM CDT (4/13) 6:13 AM CDT (4/13)
Length of Visible Light 13h 52m
Length of Day
13h 00m
Waxing Gibbous, 97% of the Moon is Illuminated
Apr 13
Waxing Gibbous
Apr 15
Full
Apr 22
Last Quarter
Apr 29
New
May 6
First Quarter

Hourly Weather History & Observations

Time (CDT) Temp. Windchill Dew Point Humidity Pressure Visibility Wind Dir Wind Speed Gust Speed Precip Events Conditions
5:53 AM 59.0 °F - 33.8 °F 39% 29.58 in 10.0 mi WSW 13.8 mph - N/A   Clear
6:53 AM 55.4 °F - 30.2 °F 38% 29.59 in 10.0 mi SW 13.8 mph - N/A   Clear
7:53 AM 55.4 °F - 32.0 °F 41% 29.61 in 10.0 mi SW 13.8 mph - N/A   Clear
8:53 AM 60.8 °F - 28.4 °F 29% 29.62 in 10.0 mi SW 10.4 mph - N/A   Clear
9:55 AM 68.0 °F - 23.0 °F 18% 29.64 in 10.0 mi WNW 18.4 mph 26.5 mph N/A   Clear
10:53 AM 69.8 °F - 28.4 °F 21% 29.65 in 10.0 mi NW 23.0 mph 32.2 mph N/A   Clear
11:53 AM 69.8 °F - 41.0 °F 35% 29.67 in 10.0 mi NNW 21.9 mph 31.1 mph N/A   Clear
12:53 PM 69.8 °F - 37.4 °F 31% 29.70 in 10.0 mi North 18.4 mph 26.5 mph N/A   Clear
1:53 PM 69.8 °F - 37.4 °F 31% 29.70 in 10.0 mi North 16.1 mph 27.6 mph N/A   Clear
2:53 PM 69.8 °F - 37.4 °F 31% 29.71 in 10.0 mi NNW 19.6 mph 26.5 mph N/A   Clear
3:53 PM 68.0 °F - 35.6 °F 30% 29.72 in 10.0 mi NNE 23.0 mph 31.1 mph N/A   Clear
4:53 PM 62.6 °F - 35.6 °F 37% 29.72 in 10.0 mi North 25.3 mph 33.4 mph N/A   Clear
5:53 PM 57.2 °F - 33.8 °F 41% 29.73 in 10.0 mi North 28.8 mph 38.0 mph N/A   Clear
6:53 PM 51.8 °F - 32.0 °F 47% 29.75 in 8.0 mi North 27.6 mph 40.3 mph N/A   Clear
7:53 PM 44.6 °F 34.9 °F 30.2 °F 57% 29.78 in 6.0 mi North 28.8 mph 39.1 mph N/A   Haze
8:53 PM 39.2 °F 27.0 °F 28.4 °F 65% 29.82 in 8.0 mi North 32.2 mph 41.4 mph N/A   Partly Cloudy
9:53 PM 37.4 °F 24.4 °F 28.4 °F 70% 29.92 in 6.0 mi North 33.4 mph 41.4 mph N/A   Haze
10:35 PM 35.6 °F 21.9 °F 26.6 °F 70% 29.94 in 3.0 mi North 33.4 mph 43.7 mph N/A   Haze
10:53 PM 35.6 °F 21.7 °F 26.6 °F 70% 29.95 in 3.0 mi North 34.5 mph 47.2 mph N/A   Haze